Time,TemperatureF,DewpointF,PressureIn,WindDirection,WindDirectionDegrees,WindSpeedMPH,WindSpeedGustMPH,Humidity,HourlyPrecipIn,Conditions,Clouds,dailyrainin,SoftwareType,DateUTC
2013-12-11 00:04:00,20.6,15.4,30.33,SSW,198,0.0,2.0,80,0.00,,,0.00,Wunderground v.1.15,2013-12-11 06:04:00,
2013-12-11 00:09:00,20.5,15.3,30.33,SSW,198,0.0,2.0,80,0.00,,,0.00,Wunderground v.1.15,2013-12-11 06:09:00,
2013-12-11 00:19:00,19.4,14.5,30.34,SSW,195,0.0,2.0,81,0.00,,,0.00,Wunderground v.1.15,2013-12-11 06:19:00,
2013-12-11 00:29:00,19.0,15.0,30.34,SSW,195,0.0,2.0,84,0.00,,,0.00,Wunderground v.1.15,2013-12-11 06:29:00,
2013-12-11 00:34:00,19.0,14.4,30.34,SSW,195,0.0,2.0,82,0.00,,,0.00,Wunderground v.1.15,2013-12-11 06:34:00,
2013-12-11 00:44:00,18.1,13.8,30.33,SSW,195,0.0,2.0,83,0.00,,,0.00,Wunderground v.1.15,2013-12-11 06:44:00,
2013-12-11 00:54:00,17.1,13.1,30.33,SSW,195,0.0,2.0,84,0.00,,,0.00,Wunderground v.1.15,2013-12-11 06:54:00,
2013-12-11 01:04:00,16.9,13.7,30.33,SW,222,0.0,2.0,87,0.00,,,0.00,Wunderground v.1.15,2013-12-11 07:04:00,
2013-12-11 01:14:00,17.4,13.7,30.33,NW,316,0.0,2.0,85,0.00,,,0.00,Wunderground v.1.15,2013-12-11 07:14:00,
2013-12-11 01:24:00,16.9,13.4,30.33,NW,316,0.0,2.0,86,0.00,,,0.00,Wunderground v.1.15,2013-12-11 07:24:00,
2013-12-11 01:34:00,16.9,13.7,30.32,NW,316,0.0,2.0,87,0.00,,,0.00,Wunderground v.1.15,2013-12-11 07:34:00,
2013-12-11 01:44:00,16.4,13.5,30.32,NW,316,0.0,2.0,88,0.00,,,0.00,Wunderground v.1.15,2013-12-11 07:44:00,
2013-12-11 01:54:00,17.4,14.5,30.33,West,260,0.0,2.0,88,0.00,,,0.00,Wunderground v.1.15,2013-12-11 07:54:00,
2013-12-11 02:04:00,18.2,14.2,30.33,WSW,256,0.0,2.0,84,0.00,,,0.00,Wunderground v.1.15,2013-12-11 08:04:00,
2013-12-11 02:14:00,18.7,14.7,30.33,SSW,197,0.0,2.0,84,0.00,,,0.00,Wunderground v.1.15,2013-12-11 08:14:00,
2013-12-11 02:24:00,18.2,14.4,30.33,East,97,0.0,2.0,85,0.00,,,0.00,Wunderground v.1.15,2013-12-11 08:24:00,
2013-12-11 02:34:00,17.2,13.7,30.34,WSW,241,0.0,2.0,86,0.00,,,0.00,Wunderground v.1.15,2013-12-11 08:34:00,
2013-12-11 02:44:00,16.5,13.0,30.34,WSW,240,0.0,2.0,86,0.00,,,0.00,Wunderground v.1.15,2013-12-11 08:44:00,
2013-12-11 02:54:00,15.9,13.0,30.34,WSW,240,0.0,2.0,88,0.00,,,0.00,Wunderground v.1.15,2013-12-11 08:54:00,
2013-12-11 03:04:00,15.4,12.5,30.34,WSW,241,0.0,2.0,88,0.00,,,0.00,Wunderground v.1.15,2013-12-11 09:04:00,
2013-12-11 03:14:00,14.9,12.2,30.34,WSW,240,0.0,2.0,89,0.00,,,0.00,Wunderground v.1.15,2013-12-11 09:14:00,
2013-12-11 03:24:00,15.2,12.8,30.35,WSW,243,0.0,2.0,90,0.00,,,0.00,Wunderground v.1.15,2013-12-11 09:24:00,
2013-12-11 03:34:00,16.1,13.9,30.35,ESE,109,0.0,2.0,91,0.00,,,0.00,Wunderground v.1.15,2013-12-11 09:34:00,
2013-12-11 03:44:00,17.9,15.2,30.34,East,101,0.0,2.0,89,0.00,,,0.00,Wunderground v.1.15,2013-12-11 09:44:00,
2013-12-11 03:54:00,19.2,15.7,30.34,ESE,103,0.0,2.0,86,0.00,,,0.00,Wunderground v.1.15,2013-12-11 09:54:00,
2013-12-11 04:04:00,18.4,14.4,30.35,ESE,103,0.0,2.0,84,0.00,,,0.00,Wunderground v.1.15,2013-12-11 10:04:00,
2013-12-11 04:14:00,-999.9,-99.9,30.35,North,32767,-999.0,2.0,255,-99.99,,,0.00,Wunderground v.1.15,2013-12-11 10:14:00,
2013-12-11 04:24:00,-999.9,-99.9,30.34,North,32767,-999.0,2.0,255,-99.99,,,0.00,Wunderground v.1.15,2013-12-11 10:24:00,
2013-12-11 04:34:00,-999.9,-99.9,30.34,North,32767,-999.0,2.0,255,-99.99,,,0.00,Wunderground v.1.15,2013-12-11 10:34:00,
2013-12-11 04:44:00,-999.9,-99.9,30.35,North,32767,-999.0,2.0,255,-99.99,,,0.00,Wunderground v.1.15,2013-12-11 10:44:00,
2013-12-11 04:54:00,-999.9,-99.9,30.35,North,32767,-999.0,2.0,255,-99.99,,,0.00,Wunderground v.1.15,2013-12-11 10:54:00,
2013-12-11 05:04:00,-999.9,-99.9,30.36,North,32767,-999.0,2.0,255,-99.99,,,0.00,Wunderground v.1.15,2013-12-11 11:04:00,
2013-12-11 05:09:00,-999.9,-99.9,30.36,North,32767,-999.0,2.0,255,-99.99,,,0.00,Wunderground v.1.15,2013-12-11 11:09:00,
2013-12-11 05:19:00,-999.9,-99.9,30.37,North,32767,-999.0,2.0,255,-99.99,,,0.00,Wunderground v.1.15,2013-12-11 11:19:00,
2013-12-11 05:29:00,-999.9,-99.9,30.37,North,32767,-999.0,2.0,255,-99.99,,,0.00,Wunderground v.1.15,2013-12-11 11:29:00,
2013-12-11 05:39:00,-999.9,-99.9,30.37,North,32767,-999.0,2.0,255,-99.99,,,0.00,Wunderground v.1.15,2013-12-11 11:39:00,
2013-12-11 05:49:00,-999.9,-99.9,30.38,North,32767,-999.0,2.0,255,-99.99,,,0.00,Wunderground v.1.15,2013-12-11 11:49:00,
2013-12-11 05:59:00,-999.9,-99.9,30.39,North,32767,-999.0,2.0,255,-99.99,,,0.00,Wunderground v.1.15,2013-12-11 11:59:00,
2013-12-11 06:09:00,-999.9,-99.9,30.39,North,32767,-999.0,2.0,255,-99.99,,,0.00,Wunderground v.1.15,2013-12-11 12:09:00,
2013-12-11 06:19:00,-999.9,-99.9,30.40,North,32767,-999.0,2.0,255,-99.99,,,0.00,Wunderground v.1.15,2013-12-11 12:19:00,
2013-12-11 06:29:00,-999.9,-99.9,30.40,North,32767,-999.0,2.0,255,-99.99,,,0.00,Wunderground v.1.15,2013-12-11 12:29:00,
2013-12-11 06:39:00,-999.9,-99.9,30.41,North,32767,-999.0,2.0,255,-99.99,,,0.00,Wunderground v.1.15,2013-12-11 12:39:00,
2013-12-11 06:49:00,-999.9,-99.9,30.42,North,32767,-999.0,2.0,255,-99.99,,,0.00,Wunderground v.1.15,2013-12-11 12:49:00,
2013-12-11 06:59:00,-999.9,-99.9,30.42,North,32767,-999.0,2.0,255,-99.99,,,0.00,Wunderground v.1.15,2013-12-11 12:59:00,
2013-12-11 07:09:00,-999.9,-99.9,30.43,North,32767,-999.0,2.0,255,-99.99,,,0.00,Wunderground v.1.15,2013-12-11 13:09:00,
2013-12-11 07:19:00,-999.9,-99.9,30.44,North,32767,-999.0,2.0,255,-99.99,,,0.00,Wunderground v.1.15,2013-12-11 13:19:00,
2013-12-11 07:24:00,-999.9,-99.9,-32.77,North,32767,-999.0,2.0,255,-99.99,,,0.00,Wunderground v.1.15,2013-12-11 13:24:00,
2013-12-11 08:39:00,26.9,21.0,30.50,WSW,243,0.0,2.0,78,0.00,,,0.00,Wunderground v.1.15,2013-12-11 14:39:00,
2013-12-11 08:49:00,27.2,21.2,30.51,WSW,246,1.0,6.0,78,0.00,,,0.00,Wunderground v.1.15,2013-12-11 14:49:00,
2013-12-11 08:59:00,27.7,21.4,30.51,WSW,254,1.0,6.0,77,0.00,,,0.00,Wunderground v.1.15,2013-12-11 14:59:00,
2013-12-11 09:09:00,28.1,22.1,30.52,SW,233,2.0,6.0,78,0.00,,,0.00,Wunderground v.1.15,2013-12-11 15:09:00,
2013-12-11 09:19:00,28.0,21.4,30.53,WSW,255,2.0,6.0,76,0.00,,,0.00,Wunderground v.1.15,2013-12-11 15:19:00,
2013-12-11 09:29:00,28.4,22.1,30.53,WNW,285,2.0,6.0,77,0.00,,,0.00,Wunderground v.1.15,2013-12-11 15:29:00,
2013-12-11 09:39:00,28.6,22.3,30.54,West,262,2.0,6.0,77,0.00,,,0.00,Wunderground v.1.15,2013-12-11 15:39:00,
2013-12-11 09:44:00,28.7,22.4,30.54,West,266,2.0,6.0,77,0.00,,,0.00,Wunderground v.1.15,2013-12-11 15:44:00,
2013-12-11 09:54:00,29.3,23.3,30.55,WSW,249,2.0,6.0,78,0.00,,,0.00,Wunderground v.1.15,2013-12-11 15:54:00,
2013-12-11 10:04:00,30.5,23.5,30.55,West,276,2.0,6.0,75,0.00,,,0.00,Wunderground v.1.15,2013-12-11 16:04:00,
2013-12-11 10:14:00,30.8,23.2,30.56,WSW,248,2.0,7.0,73,0.00,,,0.00,Wunderground v.1.15,2013-12-11 16:14:00,
2013-12-11 10:24:00,31.7,23.0,30.56,West,267,4.0,4.0,70,0.00,,,0.00,Wunderground v.1.15,2013-12-11 16:24:00,
2013-12-11 10:34:00,31.8,22.8,30.56,NNE,20,3.0,6.0,69,0.00,,,0.00,Wunderground v.1.15,2013-12-11 16:34:00,
2013-12-11 10:44:00,32.5,22.8,30.56,West,264,3.0,8.0,67,0.00,,,0.00,Wunderground v.1.15,2013-12-11 16:44:00,
2013-12-11 10:54:00,33.2,22.0,30.57,WSW,241,3.0,9.0,63,0.00,,,0.00,Wunderground v.1.15,2013-12-11 16:54:00,
2013-12-11 11:04:00,33.6,22.3,30.56,West,271,3.0,6.0,63,0.00,,,0.00,Wunderground v.1.15,2013-12-11 17:04:00,
2013-12-11 11:14:00,33.1,21.1,30.56,WNW,290,4.0,6.0,61,0.00,,,0.00,Wunderground v.1.15,2013-12-11 17:14:00,
2013-12-11 11:24:00,33.9,20.3,30.56,West,281,3.0,6.0,57,0.00,,,0.00,Wunderground v.1.15,2013-12-11 17:24:00,
2013-12-11 11:34:00,33.8,20.6,30.56,West,281,3.0,6.0,58,0.00,,,0.00,Wunderground v.1.15,2013-12-11 17:34:00,
2013-12-11 11:44:00,34.2,18.8,30.56,West,264,3.0,6.0,53,0.00,,,0.00,Wunderground v.1.15,2013-12-11 17:44:00,
2013-12-11 11:54:00,34.2,19.3,30.56,NNW,341,3.0,6.0,54,0.00,,,0.00,Wunderground v.1.15,2013-12-11 17:54:00,
2013-12-11 12:04:00,34.6,18.8,30.56,WSW,253,3.0,6.0,52,0.00,,,0.00,Wunderground v.1.15,2013-12-11 18:04:00,
2013-12-11 12:09:00,34.9,18.1,30.56,NW,322,2.0,2.0,50,0.00,,,0.00,Wunderground v.1.15,2013-12-11 18:09:00,
2013-12-11 12:19:00,34.7,17.5,30.55,WNW,297,3.0,6.0,49,0.00,,,0.00,Wunderground v.1.15,2013-12-11 18:19:00,
2013-12-11 12:29:00,34.9,17.2,30.55,WNW,297,3.0,3.0,48,0.00,,,0.00,Wunderground v.1.15,2013-12-11 18:29:00,
2013-12-11 12:39:00,35.0,17.7,30.55,SW,215,2.0,6.0,49,0.00,,,0.00,Wunderground v.1.15,2013-12-11 18:39:00,
2013-12-11 12:49:00,35.9,18.6,30.54,NW,307,3.0,6.0,49,0.00,,,0.00,Wunderground v.1.15,2013-12-11 18:49:00,
2013-12-11 12:59:00,35.4,16.1,30.55,SW,236,3.0,3.0,45,0.00,,,0.00,Wunderground v.1.15,2013-12-11 18:59:00,
2013-12-11 13:09:00,34.6,12.7,30.55,WNW,285,4.0,4.0,40,0.00,,,0.00,Wunderground v.1.15,2013-12-11 19:09:00,
2013-12-11 13:19:00,35.2,14.9,30.55,WNW,288,3.0,6.0,43,0.00,,,0.00,Wunderground v.1.15,2013-12-11 19:19:00,
2013-12-11 13:29:00,34.9,15.7,30.55,SW,218,3.0,6.0,45,0.00,,,0.00,Wunderground v.1.15,2013-12-11 19:29:00,
2013-12-11 13:39:00,34.9,16.7,30.55,WNW,295,2.0,6.0,47,0.00,,,0.00,Wunderground v.1.15,2013-12-11 19:39:00,
2013-12-11 13:49:00,34.7,17.0,30.55,West,262,2.0,2.0,48,0.00,,,0.00,Wunderground v.1.15,2013-12-11 19:49:00,
2013-12-11 13:59:00,34.7,16.5,30.55,WNW,291,2.0,2.0,47,0.00,,,0.00,Wunderground v.1.15,2013-12-11 19:59:00,
2013-12-11 14:09:00,34.6,15.4,30.55,NW,316,3.0,3.0,45,0.00,,,0.00,Wunderground v.1.15,2013-12-11 20:09:00,
2013-12-11 14:14:00,34.5,14.8,30.55,West,276,2.0,6.0,44,0.00,,,0.00,Wunderground v.1.15,2013-12-11 20:14:00,
2013-12-11 14:24:00,34.5,14.8,30.55,West,278,2.0,6.0,44,0.00,,,0.00,Wunderground v.1.15,2013-12-11 20:24:00,
2013-12-11 14:34:00,34.2,15.0,30.56,NNW,340,2.0,6.0,45,0.00,,,0.00,Wunderground v.1.15,2013-12-11 20:34:00,
2013-12-11 14:44:00,34.1,15.5,30.56,West,281,2.0,6.0,46,0.00,,,0.00,Wunderground v.1.15,2013-12-11 20:44:00,
2013-12-11 14:49:00,33.7,15.1,30.56,West,265,3.0,6.0,46,0.00,,,0.00,Wunderground v.1.15,2013-12-11 20:49:00,
2013-12-11 14:59:00,33.4,15.3,30.56,WNW,288,2.0,6.0,47,0.00,,,0.00,Wunderground v.1.15,2013-12-11 20:59:00,
2013-12-11 15:09:00,33.2,13.6,30.56,South,174,2.0,2.0,44,0.00,,,0.00,Wunderground v.1.15,2013-12-11 21:09:00,
2013-12-11 15:19:00,33.0,13.9,30.56,West,260,2.0,2.0,45,0.00,,,0.00,Wunderground v.1.15,2013-12-11 21:19:00,
2013-12-11 15:29:00,32.7,12.6,30.57,WSW,242,2.0,2.0,43,0.00,,,0.00,Wunderground v.1.15,2013-12-11 21:29:00,
2013-12-11 15:39:00,32.5,11.4,30.57,WSW,253,1.0,6.0,41,0.00,,,0.00,Wunderground v.1.15,2013-12-11 21:39:00,
2013-12-11 15:49:00,31.8,11.3,30.57,West,260,2.0,2.0,42,0.00,,,0.00,Wunderground v.1.15,2013-12-11 21:49:00,
2013-12-11 15:59:00,31.2,10.7,30.58,WSW,246,1.0,6.0,42,0.00,,,0.00,Wunderground v.1.15,2013-12-11 21:59:00,
2013-12-11 16:09:00,30.7,11.8,30.58,SW,217,1.0,1.0,45,0.00,,,0.00,Wunderground v.1.15,2013-12-11 22:09:00,
2013-12-11 16:19:00,30.0,11.7,30.58,WSW,248,1.0,6.0,46,0.00,,,0.00,Wunderground v.1.15,2013-12-11 22:19:00,
2013-12-11 16:29:00,29.6,11.8,30.58,West,262,1.0,1.0,47,0.00,,,0.00,Wunderground v.1.15,2013-12-11 22:29:00,
2013-12-11 16:39:00,29.1,11.8,30.58,West,274,0.0,6.0,48,0.00,,,0.00,Wunderground v.1.15,2013-12-11 22:39:00,
2013-12-11 16:49:00,28.5,11.7,30.59,WSW,253,0.0,6.0,49,0.00,,,0.00,Wunderground v.1.15,2013-12-11 22:49:00,
2013-12-11 16:59:00,28.1,11.8,30.59,West,276,0.0,6.0,50,0.00,,,0.00,Wunderground v.1.15,2013-12-11 22:59:00,
2013-12-11 17:04:00,27.9,12.1,30.59,WNW,284,0.0,6.0,51,0.00,,,0.00,Wunderground v.1.15,2013-12-11 23:04:00,
2013-12-11 17:14:00,27.4,12.1,30.59,West,262,0.0,6.0,52,0.00,,,0.00,Wunderground v.1.15,2013-12-11 23:14:00,
2013-12-11 17:24:00,26.8,11.9,30.60,WSW,256,0.0,6.0,53,0.00,,,0.00,Wunderground v.1.15,2013-12-11 23:24:00,
2013-12-11 17:34:00,26.1,11.7,30.60,SW,233,0.0,6.0,54,0.00,,,0.00,Wunderground v.1.15,2013-12-11 23:34:00,
2013-12-11 17:44:00,26.0,11.6,30.61,WSW,239,0.0,6.0,54,0.00,,,0.00,Wunderground v.1.15,2013-12-11 23:44:00,
2013-12-11 17:54:00,25.5,11.1,30.62,WSW,250,0.0,6.0,54,0.00,,,0.00,Wunderground v.1.15,2013-12-11 23:54:00,
2013-12-11 18:04:00,25.2,10.4,30.62,West,274,0.0,6.0,53,0.00,,,0.00,Wunderground v.1.15,2013-12-12 00:04:00,
2013-12-11 18:14:00,25.0,9.0,30.62,West,263,0.0,6.0,50,0.00,,,0.00,Wunderground v.1.15,2013-12-12 00:14:00,
2013-12-11 18:24:00,24.7,8.7,30.62,WNW,295,0.0,6.0,50,0.00,,,0.00,Wunderground v.1.15,2013-12-12 00:24:00,
2013-12-11 18:34:00,24.4,8.4,30.62,WNW,286,0.0,6.0,50,0.00,,,0.00,Wunderground v.1.15,2013-12-12 00:34:00,
2013-12-11 18:44:00,24.1,8.6,30.63,West,272,0.0,6.0,51,0.00,,,0.00,Wunderground v.1.15,2013-12-12 00:44:00,
2013-12-11 18:54:00,23.8,8.3,30.64,WNW,285,0.0,6.0,51,0.00,,,0.00,Wunderground v.1.15,2013-12-12 00:54:00,
2013-12-11 19:04:00,23.2,8.6,30.64,West,266,0.0,6.0,53,0.00,,,0.00,Wunderground v.1.15,2013-12-12 01:04:00,
2013-12-11 19:14:00,22.9,7.0,30.65,WSW,251,0.0,6.0,50,0.00,,,0.00,Wunderground v.1.15,2013-12-12 01:14:00,
2013-12-11 19:19:00,22.9,6.6,30.66,WNW,282,0.0,6.0,49,0.00,,,0.00,Wunderground v.1.15,2013-12-12 01:19:00,
2013-12-11 19:29:00,22.7,6.4,30.65,NW,316,0.0,6.0,49,0.00,,,0.00,Wunderground v.1.15,2013-12-12 01:29:00,
2013-12-11 19:39:00,22.4,6.1,30.66,WNW,297,0.0,6.0,49,0.00,,,0.00,Wunderground v.1.15,2013-12-12 01:39:00,
2013-12-11 19:49:00,22.0,6.2,30.66,NW,317,0.0,6.0,50,0.00,,,0.00,Wunderground v.1.15,2013-12-12 01:49:00,
2013-12-11 19:54:00,21.9,6.1,30.66,West,266,0.0,6.0,50,0.00,,,0.00,Wunderground v.1.15,2013-12-12 01:54:00,
2013-12-11 20:04:00,21.4,6.0,30.66,WSW,257,0.0,6.0,51,0.00,,,0.00,Wunderground v.1.15,2013-12-12 02:04:00,
2013-12-11 20:14:00,21.2,5.9,30.66,WNW,288,0.0,6.0,51,0.00,,,0.00,Wunderground v.1.15,2013-12-12 02:14:00,
2013-12-11 20:24:00,21.0,5.2,30.67,NW,322,0.0,6.0,50,0.00,,,0.00,Wunderground v.1.15,2013-12-12 02:24:00,
2013-12-11 20:34:00,20.8,5.1,30.67,West,274,0.0,6.0,50,0.00,,,0.00,Wunderground v.1.15,2013-12-12 02:34:00,
2013-12-11 20:44:00,20.5,5.2,30.67,West,274,0.0,6.0,51,0.00,,,0.00,Wunderground v.1.15,2013-12-12 02:44:00,
2013-12-11 20:54:00,20.0,5.2,30.67,WSW,257,0.0,6.0,52,0.00,,,0.00,Wunderground v.1.15,2013-12-12 02:54:00,
2013-12-11 21:04:00,19.6,5.6,30.67,West,281,0.0,6.0,54,0.00,,,0.00,Wunderground v.1.15,2013-12-12 03:04:00,
2013-12-11 21:14:00,18.6,5.5,30.67,West,271,0.0,6.0,56,0.00,,,0.00,Wunderground v.1.15,2013-12-12 03:14:00,
2013-12-11 21:24:00,18.2,5.9,30.67,WNW,290,0.0,6.0,58,0.00,,,0.00,Wunderground v.1.15,2013-12-12 03:24:00,
2013-12-11 21:34:00,17.8,5.9,30.67,WNW,288,0.0,6.0,59,0.00,,,0.00,Wunderground v.1.15,2013-12-12 03:34:00,
2013-12-11 21:44:00,17.2,8.1,30.67,WNW,291,0.0,6.0,67,0.00,,,0.00,Wunderground v.1.15,2013-12-12 03:44:00,
2013-12-11 21:54:00,16.5,6.1,30.67,WNW,295,0.0,6.0,63,0.00,,,0.00,Wunderground v.1.15,2013-12-12 03:54:00,
2013-12-11 22:04:00,16.2,6.5,30.67,North,357,0.0,6.0,65,0.00,,,0.00,Wunderground v.1.15,2013-12-12 04:04:00,
2013-12-11 22:14:00,15.6,6.9,30.67,North,356,0.0,6.0,68,0.00,,,0.00,Wunderground v.1.15,2013-12-12 04:14:00,
2013-12-11 22:24:00,15.0,6.0,30.67,North,359,0.0,6.0,67,0.00,,,0.00,Wunderground v.1.15,2013-12-12 04:24:00,
2013-12-11 22:34:00,14.7,6.4,30.67,North,359,0.0,6.0,69,0.00,,,0.00,Wunderground v.1.15,2013-12-12 04:34:00,
2013-12-11 22:44:00,13.7,6.3,30.67,North,356,0.0,6.0,72,0.00,,,0.00,Wunderground v.1.15,2013-12-12 04:44:00,
2013-12-11 22:54:00,13.2,6.8,30.66,North,359,0.0,6.0,75,0.00,,,0.00,Wunderground v.1.15,2013-12-12 04:54:00,
2013-12-11 23:04:00,13.3,6.0,30.66,North,357,0.0,6.0,72,0.00,,,0.00,Wunderground v.1.15,2013-12-12 05:04:00,
2013-12-11 23:09:00,13.2,6.8,30.67,North,358,0.0,6.0,75,0.00,,,0.00,Wunderground v.1.15,2013-12-12 05:09:00,
2013-12-11 23:19:00,13.1,6.1,30.66,North,358,0.0,6.0,73,0.00,,,0.00,Wunderground v.1.15,2013-12-12 05:19:00,
2013-12-11 23:29:00,13.0,6.0,30.67,North,359,0.0,6.0,73,0.00,,,0.00,Wunderground v.1.15,2013-12-12 05:29:00,
2013-12-11 23:39:00,12.6,7.6,30.67,North,359,0.0,6.0,80,0.00,,,0.00,Wunderground v.1.15,2013-12-12 05:39:00,
2013-12-11 23:44:00,12.3,7.3,30.67,North,357,0.0,6.0,80,0.00,,,0.00,Wunderground v.1.15,2013-12-12 05:44:00,
2013-12-11 23:54:00,12.3,7.6,30.67,North,357,0.0,6.0,81,0.00,,,0.00,Wunderground v.1.15,2013-12-12 05:54:00,